Regional Weather Roundup
Issued by NWS

Home | Current Version | Previous Version | Graphics & Text | Print | Product List | Glossary On
Versions: 1 2 3 4 5 6 7 8 9 10 11 12 13 14 15 16 17 18 19 20 21 22 23 24 25 26 27 28 29 30 31 32 33 34 35 36 37 38 39 40 41 42 43 44 45 46 47 48 49 50
000
ASUS43 KLOT 250209
RWRIL

ILLINOIS REGIONAL WEATHER ROUNDUP
NATIONAL WEATHER SERVICE CHICAGO/ROMEOVILLE IL
900 PM CDT WED MAY 24 2017

NOTE: "FAIR" INDICATES FEW OR NO CLOUDS BELOW 12,000 FEET WITH NO
SIGNIFICANT WEATHER AND/OR OBSTRUCTIONS TO VISIBILITY.

* THESE STATIONS ARE NOT UNDER NWS QUALITY CONTROL. THEY ALSO MAY NOT
  REPORT WEATHER SUCH AS PRECIPITATION OR FOG.

ILZ001-002-007-009-015-016-024-250300-
NORTHWEST ILLINOIS

CITY           SKY/WX    TMP DP  RH WIND       PRES   REMARKS
MOLINE         MOCLDY    60  50  69 N8        29.62R
STERLING*      CLOUDY    56  52  86 N9        29.62S
SAVANNA*       CLOUDY    57  51  81 N7        29.64R
$$

ILZ003-004-008-010-011-017-018-250300-
NORTH CENTRAL ILLINOIS

CITY           SKY/WX    TMP DP  RH WIND       PRES   REMARKS
ROCKFORD       CLOUDY    57  52  83 N9        29.62S
FREEPORT*      CLOUDY    54  51  87 N8G16     29.65R
ROCHELLE*      CLOUDY    55  53  91 N13G18    29.61R
DE KALB*       CLOUDY    58  54  86 N10       29.59S
PERU*          CLOUDY    57  52  85 N14       29.60R
$$

ILZ005-006-012>014-019>023-250300-
NORTHEAST ILLINOIS

CITY           SKY/WX    TMP DP  RH WIND       PRES   REMARKS
CHICAGO-OHARE  CLOUDY    54  48  80 NE16      29.56S
CHICAGO-MIDWAY CLOUDY    52  49  89 N13       29.55F
AURORA         CLOUDY    60  52  74 N12       29.57S
LANSING*       CLOUDY    50  50 100 N8G16     29.54F
JOLIET*        CLOUDY    57  56  95 N5        29.55F
WAUKEGAN       CLOUDY    52  48  86 N10G18    29.58R
DUPAGE AIRPORT LGT RAIN  58  53  84 N12       29.56R
KANKAKEE*      CLOUDY    55  52  92 CALM      29.54F
WHEELING       CLOUDY    54  50  86 N13G20    29.58S
MORRIS*        LGT RAIN  58  55  88 CALM      29.55S
ROMEOVILLE*    CLOUDY    56  54  95 NE8       29.55F
NORTHERLY ISL    N/A     50  47  89 NW12        N/A
$$

LMZ740>746-250300-
SOUTHERN LAKE MICHIGAN

STATION/POSITION SKY/WX   TEMP    WIND        PRES    VSBY  WAVE
                          AIR SEA DIR/SP/G                  HT/PER
                          (F)     (DEG/KT/KT) (MB)    (MI)  (FT/S)
SOUTHERN BUOY              49 45   20/ 10/ 14 1001.3          4/ 5
WILMETTE HARBOR            47 53                N/A           7/ 6
HARRISON CRIB              49     350/ 21/ 23   N/A
BURNHAM HARBOR             49     200/ 13/ 19   N/A
CALUMET HARBOR             49     340/ 12/ 15 1000.4
BURNS HARBOR               50     320/  7/  9 1000.7S
MICHIGAN CITY              51     300/  3/  4   N/A
MICHIGAN CITY 6N           51 53  340/  4/  8   N/A           4/ 6
ST. JOSEPH                 56 56   20/  6/ 10  999.7          3/ 5
$$

ILZ025>027-034>036-040-047-049-050-058-095>099-250300-
WEST-CENTRAL ILLINOIS

CITY           SKY/WX    TMP DP  RH WIND       PRES   REMARKS
QUINCY         PTCLDY    56  53  90 N6        29.62R
GALESBURG*     CLOUDY    56  51  85 N8        29.61S
MACOMB*        CLEAR     56  53  88 N7        29.63S
JACKSONVILLE*  MOCLDY    56  54  91 NW7       29.60R
PITTSFIELD*    CLOUDY    60  54  81 NW6       29.63R
$$

ILZ028>032-037-038-041>044-048-051>054-059>061-250300-
CENTRAL ILLINOIS

CITY           SKY/WX    TMP DP  RH WIND       PRES   REMARKS
PONTIAC        CLOUDY    60  57  89 N9        29.56S
BLOOMINGTON    CLOUDY    57  54  89 N15       29.56S
DECATUR        MOCLDY    59  54  83 NW15      29.54R
PEORIA         CLOUDY    58  54  86 N8        29.59R
LACON*         CLOUDY    58  54  87 N9        29.58S
LINCOLN*       CLOUDY    60  56  84 N7        29.57R
SPRINGFIELD    CLOUDY    60  55  83 N12       29.58R
TAYLORVILLE    CLOUDY    59  54  84 NW13      29.56R
$$

ILZ033-039-045-046-055>057-062-063-250300-
EAST-CENTRAL ILLINOIS

CITY           SKY/WX    TMP DP  RH WIND       PRES   REMARKS
CHAMPAIGN      CLOUDY    59  54  83 N15       29.51S
RANTOUL*       DRIZZLE   59  57  94 N13       29.52S
MATTOON        CLOUDY    58  57  97 N12       29.51R
PARIS*         LGT RAIN  57  56  98 N8        29.50F
$$

ILZ079-100>102-250300-
SOUTHWEST ILLINOIS

CITY           SKY/WX    TMP DP  RH WIND       PRES   REMARKS
ALTON          CLOUDY    59  52  77 N7        29.59R
BELLEVILLE     CLOUDY    61  51  70 W6        29.58R
CAHOKIA*       CLEAR     61  47  59 NW12      29.58R
SPARTA*        MOCLDY    59  48  67 NW5       29.59R
$$

ILZ064>066-069>071-074>076-080>082-084>086-088>090-092>094-250300-
SOUTH-CENTRAL ILLINOIS

CITY           SKY/WX    TMP DP  RH WIND       PRES   REMARKS
CARBONDALE     PTCLDY    60  50  69 W5        29.56R
CAIRO*         MOCLDY    61  50  67 W7        29.57S
EFFINGHAM*     CLOUDY    58  58 100 W7        29.54R
MARION         MOCLDY    63  50  63 NW5       29.57R
MT. VERNON     LGT RAIN  57  54  89 VRB3      29.56R
CENTRALIA*     CLOUDY    59  57  92 W3        29.55S
SALEM*         RAIN      59  55  87 NW6       29.55S
METROPOLIS*    CLEAR     59  49  69 NW3       29.56S
$$

ILZ067-068-072-073-078-083-087-091-250300-
SOUTHEAST ILLINOIS

CITY           SKY/WX    TMP DP  RH WIND       PRES   REMARKS
LAWRENCEVILLE  CLOUDY    58  57  97 NW10      29.50R
FLORA*         LGT RAIN  60  57  89 W8        29.53S
FAIRFIELD*     DRIZZLE   57  56  98 CALM      29.53S
HARRISBURG*    LGT RAIN  58  54  87 NW6       29.56R
ROBINSON*      CLOUDY    57  56  97 W9        29.50S FOG
CARMI*         RAIN      57  56  96 W8        29.53S
$$

ABBREVIATIONS USED IN REMARKS
   TC - TEMPERATURE IN CELSIUS
  WCI - WIND CHILL INDEX
   HX - HEAT INDEX
  VSB - VISIBILITY
$$





USA.gov is the U.S. government's official web portal to all federal, state and local government web resources and services.